FLOCK 2K-41

Last updated on Wed Feb 14 2018 16:20:53 GMT+0000 (Coordinated Universal Time)

1 42875U 17042BC 18044.90103331 .00002182 00000-0 64499-4 0 9996 2 42875 96.9928 307.7821 0011965 179.2812 180.8452 15.35878036 32718
UTC large
Height (km)
Speed (km/s)
/
Latitude / Longitude
Inclination (degrees)
Orbital Period (minutes)
Azimuth
Elevation
Range (km)
Doppler Factor

Next 0 passes for location: London (51.5072 / 0.1276)

Sorry there are no passes over London.